| time (UTC) | temp F | wind direction | speed MPH | gust MPH | rain 1hr in | rain 24hr in | rain mn in | humidity % | barometer mb |
| 20260903064104 | 56 | 305 | 5.0 | 8.0 | 0.00 | 0.00 | 0.00 | 75 | |
| 20260903061105 | 56 | 307 | 5.0 | 8.0 | 0.00 | 0.00 | 0.00 | 76 | |
| 20260903054104 | 56 | 310 | 5.0 | 8.0 | 0.00 | 0.00 | 0.00 | 76 | |
| 20260903051105 | 56 | 309 | 6.0 | 8.0 | 0.00 | 0.00 | 0.00 | 75 | |
| 20260903044104 | 56 | 308 | 5.0 | 9.0 | 0.00 | 0.00 | 0.00 | 75 | |
| 20260903041104 | 56 | 308 | 6.0 | 9.0 | 0.00 | 0.00 | 0.00 | 75 | |
| 20260903031105 | 56 | 307 | 9.0 | 15.0 | 0.00 | 0.00 | 0.00 | 77 | |
| 20260903021104 | 58 | 305 | 7.0 | 15.0 | 0.00 | 0.00 | 0.00 | 69 | |
| 20260903014104 | 59 | 303 | 5.0 | 10.0 | 0.00 | 0.00 | 0.00 | 64 | |
| 20260903011105 | 59 | 294 | 3.0 | 11.0 | 0.00 | 0.00 | 0.00 | 61 | |
| 20260903004105 | 60 | 286 | 4.0 | 8.0 | 0.00 | 0.00 | 0.00 | 59 | |
| 20260903001504 | 60 | 296 | 4.0 | 11.0 | 0.00 | 0.00 | 0.00 | 60 | |
| 20260902234105 | 59 | 299 | 5.0 | 12.0 | 0.00 | 0.00 | 0.00 | 59 | |
| 20260902224105 | 59 | 299 | 6.0 | 13.0 | 0.00 | 0.00 | 0.00 | 66 | |
| 20260902221105 | 59 | 278 | 3.0 | 11.0 | 0.00 | 0.00 | 0.00 | 73 | |
| 20260902214105 | 59 | 185 | 1.0 | 4.0 | 0.00 | 0.00 | 0.00 | 72 | |
| 20260902211105 | 59 | 247 | 1.0 | 2.0 | 0.00 | 0.00 | 0.00 | 70 | |
| 20260902204106 | 60 | 302 | 1.0 | 2.0 | 0.00 | 0.00 | 0.00 | 69 | |
| 20260902201105 | 60 | 149 | 1.0 | 3.0 | 0.00 | 0.00 | 0.00 | 68 | |
| 20260902194105 | 60 | 214 | 1.0 | 2.0 | 0.00 | 0.00 | 0.00 | 67 | |
| 20260902191105 | 60 | 304 | 1.0 | 2.0 | 0.00 | 0.00 | 0.00 | 68 | |
| 20260902184105 | 60 | 312 | 1.0 | 2.0 | 0.00 | 0.00 | 0.00 | 68 | |
| 20260902181105 | 60 | 339 | 1.0 | 5.0 | 0.00 | 0.00 | 0.00 | 69 | |
| 20260902174105 | 60 | 344 | 1.0 | 3.0 | 0.00 | 0.00 | 0.00 | 70 | |
| 20260902171105 | 61 | 338 | 1.0 | 3.0 | 0.00 | 0.00 | 0.00 | 70 | |
| 20260902164105 | 63 | 308 | 3.0 | 5.0 | 0.00 | 0.00 | 0.00 | 67 | |
| 20260902161105 | 64 | 317 | 2.0 | 6.0 | 0.00 | 0.00 | 0.00 | 66 | |
| 20260902154105 | 65 | 322 | 2.0 | 7.0 | 0.00 | 0.00 | 0.00 | 66 | |
| 20260902151105 | 64 | 307 | 2.0 | 6.0 | 0.00 | 0.00 | 0.00 | 66 | |
| 20260902144105 | 65 | 310 | 3.0 | 9.0 | 0.00 | 0.00 | 0.00 | 66 | |
| 20260902141105 | 65 | 322 | 2.0 | 11.0 | 0.00 | 0.00 | 0.00 | 66 | |
| 20260902134105 | 64 | 331 | 2.0 | 7.0 | 0.00 | 0.00 | 0.00 | 66 | |
| 20260902131105 | 65 | 322 | 2.0 | 5.0 | 0.00 | 0.00 | 0.00 | 62 | |
| 20260902124104 | 64 | 324 | 2.0 | 5.0 | 0.00 | 0.00 | 0.00 | 64 | |
| 20260902121105 | 63 | 323 | 2.0 | 5.0 | 0.00 | 0.00 | 0.00 | 66 | |
| 20260902114105 | 64 | 324 | 2.0 | 4.0 | 0.00 | 0.00 | 0.00 | 68 | |
| 20260902111105 | 63 | 319 | 2.0 | 5.0 | 0.00 | 0.00 | 0.00 | 68 | |
| 20260902104105 | 64 | 304 | 2.0 | 4.0 | 0.00 | 0.00 | 0.00 | 69 | |
| 20260902101105 | 63 | 311 | 1.0 | 4.0 | 0.00 | 0.00 | 0.00 | 72 | |
| 20260902094105 | 63 | 296 | 1.0 | 3.0 | 0.00 | 0.00 | 0.00 | 69 | |
| 20260902091104 | 62 | 306 | 2.0 | 4.0 | 0.00 | 0.00 | 0.00 | 70 | |
| 20260902084104 | 62 | 297 | 1.0 | 3.0 | 0.00 | 0.00 | 0.00 | 68 | |
| 20260902081104 | 62 | 260 | 1.0 | 4.0 | 0.00 | 0.00 | 0.00 | 66 | |
| 20260902074105 | 61 | 160 | 2.0 | 6.0 | 0.00 | 0.00 | 0.00 | 68 | |
| 20260902071305 | 60 | 158 | 1.0 | 4.0 | 0.00 | 0.00 | 0.00 | 69 |